Location: Home
(42.5358°N, 72.7383°W)
Time: 08:46:56
(UTC-04:00)

A-11 Canister half - Pass Details

Date: 04 July 2022
Orbit: 1514 x 1685 km, 47.2° (Epoch: 15 August)

Event Time Altitude Azimuth Distance (km) Brightness Sun altitude
Rises 02:26:25 0° 288° (WNW) 4,932 11.6 -21.3°
Reaches altitude 10° 02:29:38 10° 290° (WNW) 3,933 11.1 -21.1°
Maximum altitude 02:39:46 78° 17° (NNE) 1,671 9.2 -20.3°
Drops below altitude 10° 02:49:32 10° 104° (ESE) 3,804 11.2 -19.5°
Sets 02:52:35 0° 106° (ESE) 4,765 11.7 -19.2°
